[[{"header":{"parameterUnit":"m.s-1","parameterCategory":1,"la1":30.2991,"la2":30.254,"lo1":-89.0895,"lo2":-89.0444,"dy":0.0017,"dx":0.0017,"nx":28,"ny":28,"refTime":"2025-02-13T09:00:00:Z","depth":0,"parameterNumber":2,"parameterNumberName":"U-component_of_WINDS"},"data":[0,0,0,0,0,0,0,0,0,0,0,0,0,0,0,0,0,0,0,0,0,0,0,0,0,0,0,0,0,0,0,0,0,0,0,0,0,0,0,0,0,0,0,0,0,0,0,0,0,0,0,0,0,0,0,0,0,0,-6.0759,-6.0761,0,-6.0932,-6.0934,-6.0936,-6.096,-6.0958,-6.0956,-6.0955,-6.113,-6.1136,-6.1142,0,0,0,0,0,0,0,0,0,0,0,0,0,-6.0446,-6.0452,-6.0758,-6.0761,-6.0763,-6.0932,-6.0934,-6.0937,-6.096,-6.0958,-6.0956,-6.0954,-6.1128,-6.1135,-6.1143,0,0,0,0,0,0,0,0,0,0,0,0,0,-6.0597,-6.0454,-6.0758,-6.0795,-6.08,-6.0932,-6.0934,-6.0937,-6.096,-6.0958,-6.0955,-6.0953,-6.1126,-6.1135,-6.1144,-6.125,0,0,-6.1172,-6.1176,0,0,0,0,0,0,0,0,-6.0589,-6.0609,-6.0787,-6.0793,-6.0798,-6.0922,-6.0889,-6.1042,-6.0961,-6.0899,-6.0955,-6.0952,-6.1063,-6.1077,-6.1115,-6.1258,-6.1266,-6.1173,-6.1179,-6.1183,-6.1185,0,0,0,0,0,0,0,-6.0578,-6.0601,-6.0827,-6.079,-6.0797,-6.0803,-6.0821,-6.0918,-6.0992,-6.0904,-6.0907,-6.0927,-6.1065,-6.1106,-6.1119,-6.1268,-6.1173,-6.1181,-6.1187,-6.119,-6.1509,-6.1512,0,0,0,0,0,0,-6.0561,-6.0592,-6.0822,-6.0832,-6.0685,-6.081,-6.0831,-6.0885,-6.0992,-6.1006,-6.0929,-6.0927,-6.1091,-6.1108,-6.1125,-6.1256,-6.1183,-6.1191,-6.1197,-6.1506,-6.151,-6.1513,0,0,0,0,0,0,-6.0554,-6.0581,-6.0815,-6.0713,-6.0743,-6.0818,-6.0878,-6.0889,-6.093,-6.101,-6.1023,-6.0957,-6.109,-6.1112,-6.1219,-6.1262,-6.1195,-6.1204,-6.1503,-6.1507,-6.1511,-6.1519,0,0,0,0,0,0,-6.0545,-6.0579,-6.062,-6.0714,-6.0749,-6.0905,-6.0881,-6.0895,-6.0946,-6.0946,-6.1039,-6.1053,-6.109,-6.1205,-6.1228,-6.1274,-6.1211,-6.1499,-6.1505,-6.151,-6.1515,-6.1523,-6.1529,0,0,0,0,0,-6.0534,-6.0614,-6.0621,-6.0649,-6.0801,-6.0908,-6.0928,-6.0969,-6.095,-6.0991,-6.1043,-6.105,-6.1255,-6.1216,-6.1242,-6.1291,-6.1496,-6.1503,-6.1509,-6.1511,-6.1521,-6.1529,0,0,0,0,0,0,-6.0521,-6.0627,-6.0636,-6.0749,-6.082,-6.0912,-6.0965,-6.0978,-6.1055,-6.1051,-6.1099,-6.112,-6.1225,-6.127,-6.1224,-6.1401,-6.1374,-6.1386,-6.1366,-6.1376,-6.1384,-6.1369,-6.1219,0,0,0,0,0,-6.0532,-6.061,-6.0698,-6.0789,-6.0824,-6.0889,-6.0937,-6.0964,-6.1038,-6.1067,-6.1127,-6.1198,-6.1279,-6.1331,-6.141,-6.1523,-6.1543,-6.157,-6.1578,-6.1583,-6.1592,-6.1655,-6.1667,-6.1534,-6.1534,-6.1534,0,0,-6.0553,-6.0621,-6.0667,-6.0789,-6.0846,-6.0925,-6.0913,-6.0998,-6.1057,-6.108,-6.1184,-6.1231,-6.1314,-6.1425,-6.1477,-6.1465,-6.1634,-6.1592,-6.1595,-6.1601,-6.1663,-6.1675,-6.1687,-6.1539,-6.1538,-6.1537,0,0,-6.0633,-6.0693,-6.0775,-6.0834,-6.0922,-6.0965,-6.0985,-6.1077,-6.1109,-6.1215,-6.1234,-6.1306,-6.1444,-6.1503,-6.155,-6.1657,-6.1665,-6.1682,-6.1718,-6.1779,-6.179,-6.1799,-6.1835,-6.1848,-6.1691,-6.1691,-6.1691,0,-6.0648,-6.0768,-6.0815,-6.09,-6.0952,-6.098,-6.1063,-6.1118,-6.1227,-6.1263,-6.125,-6.1425,-6.1483,-6.1607,-6.1634,-6.1672,-6.1696,-6.1669,-6.1785,-6.1795,-6.1804,-6.1839,-6.1853,-6.1692,-6.1692,-6.1692,-6.1692,0,-6.0782,-6.0866,-6.0922,-6.1028,-6.1088,-6.1171,-6.1231,-6.1286,-6.1309,-6.1354,-6.1462,-6.1534,-6.1627,-6.166,-6.1683,-6.1789,-6.1779,-6.1775,-6.1748,-6.1817,-6.1851,-6.1865,-6.1694,-6.1693,-6.1693,-6.1693,0,0,-6.0853,-6.0987,-6.1006,-6.1055,-6.1157,-6.1222,-6.1308,-6.1401,-6.1447,-6.1523,-6.1595,-6.1714,-6.1711,-6.1766,-6.1796,-6.185,-6.1929,-6.184,-6.1843,-6.1852,-6.2049,-6.2048,-6.2063,-6.1937,-6.194,-6.1942,-6.2041,0,-6.0942,-6.1095,-6.1141,-6.127,-6.1347,-6.1377,-6.1452,-6.1522,-6.1568,-6.164,-6.1691,-6.1773,-6.1765,-6.1798,-6.1853,-6.1907,-6.1968,-6.1901,-6.2003,-6.2006,-6.1977,-6.2081,-6.208,-6.2169,-6.2055,-6.2057,-6.2059,0,-6.1065,-6.1144,-6.128,-6.1373,-6.1408,-6.1474,-6.1564,-6.1634,-6.1715,-6.1744,-6.1807,-6.1834,-6.1925,-6.1897,-6.2023,-6.1976,-6.2022,-6.2055,-6.206,-6.2067,-6.2033,-6.2088,-6.2199,-6.2211,-6.208,-6.2078,-6.2077,0,-6.1099,-6.1241,-6.134,-6.1382,-6.1494,-6.1539,-6.1588,-6.1667,-6.1721,-6.1801,-6.1836,-6.1925,-6.1972,-6.2041,-6.2091,-6.2067,-6.2212,-6.2189,-6.2237,-6.2236,-6.2263,-6.2259,-6.2379,-6.2298,-6.2298,-6.2298,-6.2297,0,-6.1191,-6.1273,-6.1358,-6.1418,-6.1511,-6.1565,-6.1656,-6.1706,-6.1777,-6.1848,-6.1881,-6.1947,-6.2011,-6.2086,-6.2126,-6.2223,-6.2245,-6.2271,-6.228,-6.2266,-6.2262,-6.2293,-6.2287,-6.2301,-6.2301,-6.23,-6.2299,0,-6.1243,-6.1304,-6.1414,-6.1512,-6.1539,-6.1603,-6.1687,-6.1748,-6.1796,-6.1886,-6.191,-6.1986,-6.2076,-6.2135,-6.2249,-6.2277,-6.2382,-6.2391,-6.2354,-6.2358,-6.2403,-6.2396,-6.2543,-6.2564,-6.2472,-6.2473,-6.2473,0,-6.1296,-6.1359,-6.1465,-6.1516,-6.1565,-6.1647,-6.1702,-6.176,-6.1816,-6.1916,-6.1964,-6.2057,-6.2133,-6.2277,-6.2341,-6.243,-6.2439,-6.2485,-6.2452,-6.2437,-6.2437,-6.2431,-6.2437,-6.2488,-6.2489,-6.249,-6.249,0,-6.1382,-6.141,-6.1489,-6.158,-6.1646,-6.172,-6.1793,-6.1833,-6.1903,-6.1966,-6.2059,-6.2119,-6.2238,-6.2329,-6.2424,-6.2474,-6.2493,-6.2501,-6.2516,-6.25,-6.2475,-6.2487,-6.2365,-6.2496,-6.2495,-6.2495,-6.2494,-6.2494,-6.1434,-6.1492,-6.1576,-6.1664,-6.1727,-6.1796,-6.1857,-6.1915,-6.1994,-6.2095,-6.2125,-6.2222,-6.2305,-6.2434,-6.2487,-6.2564,-6.2558,-6.2581,-6.2586,-6.259,-6.2589,-6.2467,-6.2582,-6.2582,-6.2582,-6.2582,-6.2582,0,-6.152,-6.1576,-6.1657,-6.176,-6.183,-6.1845,-6.1929,-6.1985,-6.207,-6.2146,-6.2222,-6.233,-6.242,-6.2494,-6.2587,-6.2634,-6.2645,-6.2656,-6.2651,-6.2662,-6.259,-6.2566,-6.2645,-6.2645,-6.2645,-6.2645,-6.2645,-6.2645,-6.1572,-6.1671,-6.1709,-6.184,-6.1896,-6.1992,-6.2038,-6.2103,-6.2163,-6.2282,-6.2358,-6.2406,-6.2482,-6.2581,-6.2664,-6.2684,-6.2715,-6.2724,-6.2744,-6.2675,-6.2667,-6.266,-6.2638,-6.2731,-6.2731,-6.281,-6.2811,-6.2811]},{"header":{"parameterUnit":"m.s-1","parameterCategory":1,"la1":30.2991,"la2":30.254,"lo1":-89.0895,"lo2":-89.0444,"dy":0.0017,"dx":0.0017,"nx":28,"ny":28,"refTime":"2025-02-13T09:00:00:Z","depth":0,"parameterNumber":3,"parameterNumberName":"V-component_of_WINDS"},"data":[0,0,0,0,0,0,0,0,0,0,0,0,0,0,0,0,0,0,0,0,0,0,0,0,0,0,0,0,0,0,0,0,0,0,0,0,0,0,0,0,0,0,0,0,0,0,0,0,0,0,0,0,0,0,0,0,0,0,4.4361,4.4363,0,4.4535,4.4537,4.4539,4.4573,4.4571,4.457,4.4569,4.4744,4.475,4.4756,0,0,0,0,0,0,0,0,0,0,0,0,0,4.4059,4.4064,4.4361,4.4363,4.4365,4.4535,4.4537,4.454,4.4573,4.4571,4.4569,4.4568,4.4743,4.475,4.4757,0,0,0,0,0,0,0,0,0,0,0,0,0,4.4207,4.4066,4.4361,4.4403,4.4408,4.4534,4.4537,4.454,4.4573,4.4571,4.4569,4.4567,4.474,4.4749,4.4758,4.4854,0,0,4.4785,4.4789,0,0,0,0,0,0,0,0,4.4199,4.4218,4.4394,4.44,4.4406,4.453,4.4495,4.4645,4.4574,4.451,4.4569,4.4566,4.4675,4.4689,4.4726,4.4862,4.487,4.4786,4.4791,4.4795,4.4798,0,0,0,0,0,0,0,4.4188,4.4211,4.443,4.4397,4.4404,4.4413,4.4432,4.4524,4.4602,4.4516,4.4519,4.4539,4.4678,4.4717,4.473,4.4872,4.4786,4.4793,4.4799,4.4802,4.5101,4.5103,0,0,0,0,0,0,4.4171,4.4202,4.4424,4.4435,4.4295,4.442,4.4441,4.4492,4.4601,4.4616,4.454,4.454,4.4703,4.472,4.4737,4.4859,4.4795,4.4803,4.4808,4.5098,4.5101,4.5104,0,0,0,0,0,0,4.4164,4.419,4.4417,4.432,4.4349,4.4427,4.4485,4.4497,4.4537,4.462,4.4634,4.4567,4.4702,4.4724,4.4826,4.4866,4.4807,4.4816,4.5095,4.5099,4.5103,4.5103,0,0,0,0,0,0,4.4155,4.4188,4.4224,4.432,4.4354,4.4503,4.4487,4.4502,4.4552,4.4553,4.4648,4.4662,4.4702,4.4812,4.4835,4.4877,4.4822,4.5092,4.5097,4.5102,4.51,4.5107,4.5112,0,0,0,0,0,4.4144,4.4216,4.4226,4.4253,4.4402,4.4505,4.4525,4.457,4.4555,4.4594,4.4648,4.4659,4.4858,4.4822,4.4848,4.4893,4.509,4.5096,4.5101,4.5097,4.5105,4.5112,0,0,0,0,0,0,4.4121,4.4229,4.4241,4.4346,4.4417,4.4511,4.456,4.4577,4.4652,4.465,4.4703,4.4724,4.4823,4.4869,4.4827,4.4995,4.4973,4.4984,4.4961,4.497,4.4976,4.4963,4.483,0,0,0,0,0,4.4129,4.4204,4.4294,4.4378,4.4413,4.4481,4.4527,4.4557,4.4631,4.4661,4.4722,4.4794,4.4873,4.4924,4.5001,4.5107,4.513,4.5151,4.5158,4.5162,4.5171,4.5234,4.5246,4.5123,4.5123,4.5123,0,0,4.4144,4.4213,4.4256,4.4375,4.4433,4.4511,4.4505,4.4586,4.4644,4.4673,4.4774,4.4821,4.4905,4.501,4.506,4.5051,4.5211,4.517,4.5173,4.5179,4.5241,4.5253,4.5263,4.5127,4.5126,4.5126,0,0,4.4212,4.4271,4.4349,4.4408,4.4497,4.4542,4.4561,4.4654,4.4687,4.4789,4.4813,4.4884,4.5018,4.5078,4.5125,4.5221,4.5235,4.5245,4.5277,4.5338,4.5347,4.5356,4.5393,4.5405,4.5254,4.5254,4.5254,0,4.422,4.4337,4.4386,4.4468,4.4521,4.4553,4.4633,4.4688,4.4796,4.4833,4.4822,4.4994,4.5052,4.5174,4.5198,4.5234,4.5259,4.5234,4.5342,4.5352,4.5361,4.5396,4.5409,4.5254,4.5254,4.5254,4.5254,0,4.4344,4.4426,4.4478,4.4585,4.4644,4.4724,4.4786,4.484,4.4865,4.4912,4.5018,4.5089,4.5183,4.5214,4.5239,4.5341,4.5333,4.5331,4.5311,4.5372,4.5406,4.542,4.5255,4.5255,4.5255,4.5255,0,0,4.44,4.4536,4.4554,4.4605,4.4707,4.4771,4.4854,4.4948,4.4994,4.5069,4.5141,4.5256,4.5257,4.5311,4.5343,4.5397,4.5471,4.5389,4.5392,4.5404,4.5591,4.5592,4.5607,4.5482,4.5484,4.5486,4.5585,0,4.4482,4.4632,4.468,4.4805,4.4883,4.4916,4.4989,4.506,4.5106,4.5179,4.5231,4.5313,4.5306,4.534,4.5394,4.5451,4.551,4.5444,4.555,4.5553,4.5529,4.5624,4.5625,4.5714,4.5598,4.56,4.5602,0,4.4596,4.4676,4.4809,4.4905,4.4939,4.5004,4.5096,4.5164,4.5247,4.5277,4.534,4.5369,4.5459,4.5434,4.5559,4.5514,4.556,4.5595,4.56,4.5612,4.5581,4.564,4.5743,4.5757,4.5623,4.5621,4.562,0,4.4626,4.4766,4.4865,4.4907,4.5021,4.5066,4.5116,4.5196,4.525,4.5331,4.5367,4.5456,4.5505,4.5573,4.5626,4.5603,4.5748,4.5726,4.5777,4.5776,4.5806,4.5804,4.5919,4.5834,4.5834,4.5834,4.5833,0,4.4713,4.4794,4.4881,4.4942,4.5034,4.509,4.518,4.5231,4.5303,4.5376,4.5409,4.5476,4.5542,4.5618,4.566,4.5759,4.578,4.5809,4.5819,4.5807,4.5803,4.5838,4.5834,4.5837,4.5837,4.5836,4.5835,0,4.4762,4.4823,4.4934,4.5034,4.5061,4.5125,4.5211,4.5272,4.5322,4.5413,4.5438,4.5515,4.5607,4.5667,4.5783,4.5812,4.5921,4.5929,4.5894,4.5899,4.5947,4.5942,4.609,4.6113,4.6011,4.6012,4.6012,0,4.4814,4.4877,4.4985,4.5037,4.5087,4.5169,4.5226,4.5284,4.5342,4.5443,4.5492,4.5587,4.5665,4.5811,4.5878,4.5968,4.598,4.6026,4.5993,4.598,4.5983,4.5979,4.5987,4.603,4.6031,4.6032,4.6032,0,4.49,4.4928,4.5008,4.5101,4.5169,4.5244,4.5319,4.5359,4.5431,4.5494,4.559,4.5651,4.5772,4.5866,4.5964,4.6015,4.6037,4.6042,4.6059,4.6047,4.6025,4.604,4.5909,4.6039,4.6038,4.6038,4.6037,4.6037,4.4953,4.5012,4.5099,4.5189,4.5252,4.5323,4.5386,4.5445,4.5526,4.563,4.5659,4.5759,4.5844,4.5977,4.6031,4.6111,4.6105,4.6129,4.6135,4.6141,4.6143,4.6012,4.6128,4.6128,4.6128,4.6128,4.6128,0,4.5043,4.5101,4.5183,4.5289,4.536,4.5375,4.5461,4.5519,4.5608,4.5685,4.5763,4.5874,4.5967,4.6042,4.6138,4.6188,4.62,4.6211,4.6209,4.6221,4.6141,4.6117,4.62,4.62,4.62,4.62,4.62,4.62,4.5098,4.52,4.5239,4.5374,4.5432,4.5531,4.5579,4.5645,4.5708,4.5831,4.5909,4.5958,4.6036,4.6138,4.6224,4.6244,4.6279,4.6288,4.631,4.6234,4.6226,4.6218,4.6197,4.6295,4.6295,4.6384,4.6385,4.6386]}]]